User: anonymous   Login
Location: Unspecified
(0.0000°N, 0.0000°E)
Time: 13:30:07
(UTC+00:00)
Language:

VELOX 2 - Orbit

View from above orbital plane
View from above orbital plane
View from above satellite
View from above satellite

Ground track
Ground track

The orbit data is extracted from the following two-line orbital elements,

1 41171U 15077F   18015.30766366  .00001534  00000-0  51453-4 0  9991
2 41171  14.9920  71.6789 0009137  44.9505 315.1555 15.10396045115080
Epoch (UTC): 15 January 2018 07:23:02
Eccentricity: 0.0009137
inclination: 14.9920°
perigee height: 528 km
apogee height: 541 km
right ascension of ascending node: 71.6789°
argument of perigee: 44.9505°
revolutions per day: 15.10396045
mean anomaly at epoch: 315.1555°
orbit number at epoch: 11508

The dashed part of the orbit path shows where the satellite is in the earth's shadow,  

DLR